Weather History for KSET - January, 2012

Change the Weather History Date:

Tuesday, January 17, 2012

  Actual Average (KSTL) Record (KSTL)
Temperature  
Mean Temperature 42 °F 32 °F  
Max Temperature 61 °F 40 °F 72 °F (1894)
Min Temperature 21 °F 23 °F -14 °F (1930)
Degree Days  
Heating Degree Days 23 33  
Month to date heating degree days 569  
Since 1 July heating degree days 2334  
Cooling Degree Days 0 0  
Month to date cooling degree days 0  
Year to date cooling degree days 0  
Moisture  
Dew Point 32 °F    
Average Humidity 77    
Maximum Humidity 96    
Minimum Humidity 61    
Precipitation  
Precipitation 0.61 in 0.08 in 1.02 in (2004)
Month to date precipitation 1.36  
Year to date precipitation 1.36  
Snow  
Snow 0.00 in 0.20 in 2.30 in (1960)
Month to date snowfall 3.1  
Since 1 July snowfall 8.2  
Snow Depth -    
Sea Level Pressure  
Sea Level Pressure 29.95 in    
Wind  
Wind Speed 12 mph (WNW)    
Max Wind Speed 29 mph    
Max Gust Speed 39 mph    
Visibility 9 miles    
Events Rain , Thunderstorm    
T = Trace of Precipitation, MM = Missing Value Source: NWS Daily Summary

Daily Weather History Graph

Daily Weather History Graph

Search for Another Location

Airport or City:

Trip Planner

Search our weather history database for the weather conditions in past years. The results will help you decide how hot, cold, wet, or windy it might be!

Date:

Astronomy

Jan. 17, 2012 Rise Set
Actual Time 7:18 AM CST 5:05 PM CST
Civil Twilight 6:49 AM CST 5:34 PM CST
Nautical Twilight 6:16 AM CST 6:07 PM CST
Astronomical Twilight 5:44 AM CST 6:39 PM CST
Moon 1:38 AM CST (1/17) 11:58 AM CST (1/17)
Length of Visible Light 10h 45m
Length of Day
9h 47m
Waning Crescent, 35% of the Moon is Illuminated
Jan 17
Waning Crescent
Jan 23
New
Jan 30
First Quarter
Feb 7
Full
Feb 14
Last Quarter

Hourly Weather History & Observations

Time (CST) Temp. Windchill Dew Point Humidity Pressure Visibility Wind Dir Wind Speed Gust Speed Precip Events Conditions
12:54 AM 61.0 °F - 53.1 °F 75% 29.60 in 10.0 mi South 10.4 mph - N/A   Overcast
1:22 AM 60.8 °F - 53.6 °F 77% 29.59 in 10.0 mi South 11.5 mph - 0.00 in Rain , Thunderstorm Light Rain
1:33 AM 57.2 °F - 51.8 °F 82% 29.67 in 1.8 mi West 20.7 mph 38.0 mph 0.16 in Rain , Thunderstorm Heavy Thunderstorms and Rain
1:45 AM 53.6 °F - 51.8 °F 94% 29.65 in 2.0 mi West 8.1 mph - 0.31 in Rain , Thunderstorm Heavy Thunderstorms and Rain
1:54 AM 53.1 °F - 50.0 °F 89% 29.63 in - WNW 3.5 mph - 0.33 in Thunderstorm Thunderstorm
2:40 AM 51.8 °F - 50.0 °F 94% 29.63 in 10.0 mi Calm Calm - 0.08 in   Overcast
2:54 AM 51.1 °F - 48.9 °F 92% 29.61 in 10.0 mi Calm Calm - 0.08 in   Scattered Clouds
3:54 AM 51.1 °F - 48.9 °F 92% 29.62 in 10.0 mi SSW 4.6 mph - N/A   Overcast
4:28 AM 50.0 °F - 48.2 °F 94% 29.61 in 10.0 mi NNW 3.5 mph - 0.00 in Thunderstorm Overcast
4:38 AM 50.0 °F - 46.4 °F 87% 29.62 in 1.8 mi West 6.9 mph - 0.18 in Rain , Thunderstorm Heavy Thunderstorms and Rain
4:46 AM 50.0 °F - 48.2 °F 94% 29.61 in 2.5 mi SW 4.6 mph - 0.19 in Rain , Thunderstorm Light Thunderstorms and Rain
4:54 AM 50.0 °F - 48.9 °F 96% 29.62 in 10.0 mi SW 6.9 mph - 0.20 in Rain , Thunderstorm Light Rain
5:13 AM 50.0 °F - 48.2 °F 94% 29.65 in 10.0 mi West 11.5 mph - 0.01 in Rain Light Rain
5:20 AM 50.0 °F - 46.4 °F 87% 29.66 in 10.0 mi WNW 15.0 mph - 0.01 in   Overcast
5:36 AM 48.2 °F - 44.6 °F 87% 29.69 in 10.0 mi WNW 18.4 mph - 0.01 in   Overcast
6:54 AM 39.9 °F 30.5 °F 36.0 °F 86% 29.80 in 5.0 mi WNW 19.6 mph 26.5 mph 0.00 in   Overcast
7:04 AM 39.2 °F 29.0 °F 35.6 °F 87% 29.82 in 5.0 mi WNW 21.9 mph 26.5 mph N/A   Haze
7:54 AM 37.9 °F 26.8 °F 33.1 °F 83% 29.86 in 5.0 mi WNW 24.2 mph 34.5 mph N/A   Haze
8:39 AM 37.4 °F 26.6 °F 30.2 °F 75% 29.90 in 7.0 mi WNW 21.9 mph 28.8 mph N/A   Overcast
9:54 AM 34.0 °F 20.5 °F 27.0 °F 75% 29.97 in 10.0 mi WNW 28.8 mph 39.1 mph N/A   Overcast
10:54 AM 32.0 °F 20.5 °F 24.1 °F 73% 30.04 in 10.0 mi WNW 18.4 mph 31.1 mph N/A   Overcast
11:54 AM 30.0 °F 17.2 °F 21.0 °F 69% 30.07 in 10.0 mi NW 20.7 mph 32.2 mph N/A   Overcast
12:54 PM 30.9 °F 17.5 °F 21.9 °F 69% 30.09 in 10.0 mi WNW 24.2 mph 34.5 mph N/A   Overcast
1:54 PM 30.0 °F 16.6 °F 21.0 °F 69% 30.11 in 10.0 mi WNW 23.0 mph 33.4 mph N/A   Mostly Cloudy
2:54 PM 30.0 °F 18.3 °F 21.0 °F 69% 30.16 in 10.0 mi NW 17.3 mph 28.8 mph N/A   Mostly Cloudy
3:47 PM 30.2 °F 17.1 °F 19.4 °F 64% 30.19 in 10.0 mi NW 21.9 mph 33.4 mph N/A   Overcast
3:54 PM 30.0 °F 19.1 °F 19.0 °F 64% 30.20 in 10.0 mi NW 15.0 mph 26.5 mph N/A   Overcast
4:09 PM 28.4 °F 17.5 °F 19.4 °F 69% 30.20 in 10.0 mi NW 13.8 mph 21.9 mph N/A   Overcast
4:24 PM 28.4 °F 16.6 °F 17.6 °F 64% 30.21 in 10.0 mi NW 16.1 mph 26.5 mph N/A   Overcast
4:54 PM 28.9 °F 18.6 °F 17.1 °F 61% 30.24 in 10.0 mi NW 12.7 mph 25.3 mph N/A   Overcast
5:54 PM 28.0 °F 17.0 °F 16.0 °F 61% 30.27 in 10.0 mi NW 13.8 mph - N/A   Clear
6:54 PM 28.0 °F 16.5 °F 16.0 °F 61% 30.30 in 10.0 mi NW 15.0 mph 24.2 mph N/A   Overcast
7:42 PM 26.6 °F 14.3 °F 15.8 °F 64% 30.30 in 10.0 mi WNW 16.1 mph 20.7 mph N/A   Scattered Clouds
7:54 PM 26.1 °F 13.6 °F 15.1 °F 63% 30.32 in 10.0 mi NW 16.1 mph 20.7 mph N/A   Partly Cloudy
8:54 PM 25.0 °F 13.1 °F 14.0 °F 63% 30.34 in 10.0 mi NW 13.8 mph 20.7 mph N/A   Clear
9:54 PM 24.1 °F 15.2 °F 14.0 °F 65% 30.36 in 10.0 mi NW 8.1 mph - N/A   Clear
10:54 PM 23.0 °F 13.9 °F 12.9 °F 65% 30.37 in 10.0 mi NW 8.1 mph - N/A   Clear
11:54 PM 21.0 °F 9.9 °F 10.9 °F 65% 30.38 in 10.0 mi NW 10.4 mph - N/A   Clear